Location: Casa Rossa
(45.2389°N, 12.2056°E)
Time: 23:55:11
(UTC+00:00)

MOZ.5/SAFIR/RUBIN 5/SL-8 - Pass Details

Date: 14 July 2020
Orbit: 677 x 706 km, 98.1° (Epoch: 14 August)

Event Time Altitude Azimuth Distance (km) Brightness Sun altitude
Exits shadow 00:25:51 38° 146° (SE) 1,075 4.4 -21.3°
Maximum altitude 00:27:38 70° 74° (ENE) 752 4.0 -21.2°
Drops below altitude 10° 00:32:24 10° 351° (N) 2,186 7.2 -21.0°
Sets 00:34:41 0° 349° (N) 3,110 8.2 -20.8°
